User: anonymous   Login
Location: eljas
(40.1958°N, 6.8661°W)
Time: 14:44:54
(UTC+02:00)
Language:

Okean O Rocket - Orbit

View from above orbital plane
View from above orbital plane
View from above satellite
View from above satellite

Ground track
Ground track

The orbit data is extracted from the following two-line orbital elements,

1 25861U 99039B   17203.58077116 +.00000015 +00000-0 +95392-5 0  9999
2 25861 098.1079 175.1364 0015031 332.4740 153.9579 14.78419060970890
Epoch (UTC): 22 July 2017 13:56:18
Eccentricity: 0.0015031
inclination: 98.1079°
perigee height: 624 km
apogee height: 645 km
right ascension of ascending node: 175.1364°
argument of perigee: 332.4740°
revolutions per day: 14.78419060
mean anomaly at epoch: 153.9579°
orbit number at epoch: 97089

The dashed part of the orbit path shows where the satellite is in the earth's shadow,  

DLR